Flag for United Kingdom Weather past 2 weeks in Canterbury, England, United Kingdom

Now
64 °F

Mild.


Feels Like: 64 °F
Forecast: 57 / 66 °F
Wind: 13 mph from Northwest

Location: Manston

Current Time: Aug 30, 2014 at 4:09:55 PM

Latest Report: Aug 30, 2014 at 3:00 PM


Visibility: 18 mi

Pressure: 29.99 "Hg

Humidity: 64%

Dew point: 52 °F

Location of CanterburyLocation

Historic Weather in Canterbury — Graph

°F

Canterbury temperature yesterday

Maximum temperature yesterday: 68 °F (at 1:00 PM)
Minimum temperature yesterday: 55 °F (at 6:00 AM)
Average temperature yesterday: 61 °F

Past Weeks' High & Low Weather Summary

 TemperatureHumidityPressure
High71 °F (Aug 28, 4:00 PM)98% (Aug 16, 3:00 AM)30.16 "Hg (Aug 16, 3:00 AM)
Low46 °F (Aug 24, 5:00 AM)43% (Aug 20, 5:00 PM)29.55 "Hg (Aug 26, 1:00 AM)
Average59 °F75%29.92 "Hg
* Reported Aug 15 3:00 PM — Aug 30 2:00 PM, Canterbury, Weather by CustomWeather, © 2014

Note: Actual official high and low records may vary slightly from our data, if they occured in-between our weather recording intervals... More about our weather records

Advertising

Canterbury weather history for previous 24 hours

 ConditionsComfort  
Time TempWeatherWind HumidityBarometerVisibility
2:00 PM
Aug 30
66 °FMild.16 mph56%29.98 "Hg19 mi
1:00 PM66 °FMild.17 mph54%29.98 "Hg15 mi
12:00 PM64 °FMild.17 mph60%29.98 "Hg16 mi
11:00 AM63 °FMild.20 mph58%29.97 "Hg19 mi
10:00 AM63 °FMild.15 mph73%29.96 "Hg12 mi
9:00 AM62 °FRain. Cloudy.15 mph89%29.96 "Hg9 mi
8:00 AM62 °FMild.15 mph88%29.95 "Hg10 mi
7:00 AM61 °FCool.13 mph91%29.95 "Hg10 mi
6:00 AM60 °FCool.12 mph91%29.93 "Hg9 mi
5:00 AM62 °FCool.14 mph84%29.93 "Hg11 mi
4:00 AM62 °FCool.13 mph83%29.95 "Hg11 mi
3:00 AM62 °FCool.16 mph83%29.94 "Hg10 mi
2:00 AM61 °FCool.10 mph84%29.95 "Hg7 mi
1:00 AM61 °FCool.14 mph84%29.95 "Hg9 mi
11:00 PM
Aug 29
62 °FCool.13 mph83%29.96 "Hg9 mi
10:00 PM62 °FCool.16 mph83%29.96 "Hg9 mi
8:00 PM63 °FMild.17 mph78%29.94 "Hg10 mi
7:00 PM64 °FMild.17 mph73%29.94 "Hg10 mi
6:00 PM66 °FMild.21 mph67%29.94 "Hg9 mi
5:00 PM65 °FMild.23 mph67%29.94 "Hg15 mi
4:00 PM67 °FMild.23 mph64%29.94 "Hg16 mi
Weather by CustomWeather, © 2014

See weather overviewHow to use our weather pages